Location: Unspecified
(0.0000°N, 0.0000°E)
Time: 07:01:04
(UTC+02:00)

Haruka - Visible Passes

Search period start: 30 July 2014 00:00
Search period end: 09 August 2014 00:00
Orbit: 531 x 21247 km, 31.2° (Epoch: 26 July)

Date Brightness Start Highest point End Pass type
(mag) Time Alt. Az. Time Alt. Az. Time Alt. Az.
30 Jul 5.3 04:43:56 10° WNW 05:17:39 24° SE 05:19:05 10° SE visible
30 Jul 8.1 18:29:32 10° WSW 19:46:16 61° NW 23:45:43 10° ENE visible
31 Jul 4.3 06:23:47 32° SSW 06:23:47 32° SSW 06:26:32 10° SSE visible
31 Jul 7.5 19:45:56 10° W 00:21:39 45° N 00:55:36 19° ENE visible
01 Aug 7.0 21:13:26 10° W 01:52:30 48° N 02:00:07 43° NE visible
02 Aug 6.9 23:47:36 10° WNW 03:04:41 52° NNW 03:04:41 52° NNW visible
03 Aug 8.1 16:25:21 10° WSW 17:02:16 85° NW 21:33:22 10° ENE visible
04 Aug 7.3 03:33:16 10° NW 04:09:17 34° NW 04:09:17 34° NW visible
04 Aug 8.2 17:36:17 10° WSW 18:36:07 68° NW 22:51:52 10° ENE visible
05 Aug 6.0 05:10:03 10° WNW 05:13:59 13° WNW 05:13:59 13° WNW visible
05 Aug 7.8 18:50:18 10° W 20:21:51 51° NW 00:02:36 19° ENE visible
06 Aug 7.3 20:11:10 10° W 00:54:36 48° N 01:07:25 41° NE visible
07 Aug 7.2 21:54:06 10° WNW 02:12:15 55° N 02:12:15 55° N visible
08 Aug 7.8 15:33:41 10° SW 16:01:14 88° SE 20:34:43 10° ENE visible
